Time,TemperatureF,DewpointF,PressureIn,WindDirection,WindDirectionDegrees,WindSpeedMPH,WindSpeedGustMPH,Humidity,HourlyPrecipIn,Conditions,Clouds,dailyrainin,SoftwareType,DateUTC
2013-10-20 00:01:00,73.2,72.0,29.90,NNW,339,0.0,0.0,97,0.00,,,0.00,weatherlink.com 1.10,2013-10-20 04:01:00,
2013-10-20 00:16:00,73.2,72.0,29.90,NNW,339,0.0,0.0,97,0.00,,,0.00,weatherlink.com 1.10,2013-10-20 04:16:00,
2013-10-20 00:31:00,73.1,72.0,29.90,NNW,339,0.0,0.0,97,0.00,,,0.00,weatherlink.com 1.10,2013-10-20 04:31:00,
2013-10-20 00:46:00,73.3,73.0,29.89,NNW,339,0.0,1.0,98,0.00,,,0.00,weatherlink.com 1.10,2013-10-20 04:46:00,
2013-10-20 01:01:00,73.4,73.0,29.89,WNW,285,1.0,1.0,98,0.00,,,0.00,weatherlink.com 1.10,2013-10-20 05:01:00,
2013-10-20 01:16:00,73.3,73.0,29.88,WNW,285,1.0,1.0,98,0.00,,,0.00,weatherlink.com 1.10,2013-10-20 05:16:00,
2013-10-20 01:31:00,73.2,73.0,29.88,WNW,285,0.0,1.0,98,0.00,,,0.00,weatherlink.com 1.10,2013-10-20 05:31:00,
2013-10-20 01:47:00,72.9,72.0,29.88,WNW,285,0.0,0.0,98,0.00,,,0.00,weatherlink.com 1.10,2013-10-20 05:47:00,
2013-10-20 02:02:00,72.6,72.0,29.88,WNW,285,0.0,1.0,98,0.00,,,0.00,weatherlink.com 1.10,2013-10-20 06:02:00,
2013-10-20 02:17:00,72.4,72.0,29.89,WNW,285,0.0,0.0,98,0.00,,,0.00,weatherlink.com 1.10,2013-10-20 06:17:00,
2013-10-20 02:32:00,71.8,71.0,29.88,WNW,285,0.0,0.0,98,0.00,,,0.00,weatherlink.com 1.10,2013-10-20 06:32:00,
2013-10-20 02:47:00,71.9,71.0,29.88,WNW,285,0.0,0.0,98,0.00,,,0.00,weatherlink.com 1.10,2013-10-20 06:47:00,
2013-10-20 03:02:00,71.7,71.0,29.87,WNW,285,0.0,0.0,98,0.00,,,0.00,weatherlink.com 1.10,2013-10-20 07:02:00,
2013-10-20 03:17:00,71.7,71.0,29.87,WNW,285,0.0,0.0,99,0.00,,,0.00,weatherlink.com 1.10,2013-10-20 07:17:00,
2013-10-20 03:32:00,72.1,72.0,29.87,WNW,286,0.0,0.0,99,0.00,,,0.00,weatherlink.com 1.10,2013-10-20 07:32:00,
2013-10-20 03:47:00,72.4,72.0,29.87,WNW,285,0.0,0.0,99,0.00,,,0.00,weatherlink.com 1.10,2013-10-20 07:47:00,
2013-10-20 04:02:00,72.5,72.0,29.86,WNW,285,0.0,1.0,99,0.00,,,0.00,weatherlink.com 1.10,2013-10-20 08:02:00,
2013-10-20 04:17:00,72.5,72.0,29.86,WNW,285,0.0,0.0,98,0.00,,,0.00,weatherlink.com 1.10,2013-10-20 08:17:00,
2013-10-20 04:32:00,72.7,72.0,29.86,WNW,285,0.0,1.0,99,0.00,,,0.00,weatherlink.com 1.10,2013-10-20 08:32:00,
2013-10-20 04:47:00,72.8,73.0,29.86,West,280,0.0,1.0,99,0.00,,,0.00,weatherlink.com 1.10,2013-10-20 08:47:00,
2013-10-20 05:02:00,72.7,72.0,29.87,West,280,0.0,0.0,99,0.00,,,0.00,weatherlink.com 1.10,2013-10-20 09:02:00,
2013-10-20 05:17:00,72.9,73.0,29.87,West,279,0.0,0.0,99,0.00,,,0.00,weatherlink.com 1.10,2013-10-20 09:17:00,
2013-10-20 05:32:00,73.0,72.0,29.87,West,279,0.0,0.0,98,0.00,,,0.00,weatherlink.com 1.10,2013-10-20 09:32:00,
2013-10-20 05:47:00,73.2,73.0,29.88,West,280,0.0,0.0,99,0.00,,,0.00,weatherlink.com 1.10,2013-10-20 09:47:00,
2013-10-20 06:02:00,73.3,73.0,29.88,West,279,0.0,1.0,99,0.00,,,0.00,weatherlink.com 1.10,2013-10-20 10:02:00,
2013-10-20 06:17:00,73.4,73.0,29.89,West,280,0.0,0.0,98,0.00,,,0.00,weatherlink.com 1.10,2013-10-20 10:17:00,
2013-10-20 06:32:00,73.6,73.0,29.89,West,279,0.0,1.0,98,0.00,,,0.00,weatherlink.com 1.10,2013-10-20 10:32:00,
2013-10-20 06:47:00,73.5,73.0,29.89,West,279,0.0,0.0,98,0.00,,,0.00,weatherlink.com 1.10,2013-10-20 10:47:00,
2013-10-20 07:02:00,73.3,73.0,29.89,West,279,0.0,0.0,98,0.00,,,0.00,weatherlink.com 1.10,2013-10-20 11:02:00,
2013-10-20 07:17:00,73.3,73.0,29.90,West,279,0.0,0.0,98,0.00,,,0.00,weatherlink.com 1.10,2013-10-20 11:17:00,
2013-10-20 07:32:00,73.6,73.0,29.90,West,279,0.0,0.0,99,0.00,,,0.00,weatherlink.com 1.10,2013-10-20 11:32:00,
2013-10-20 07:47:00,73.7,73.0,29.90,West,279,0.0,0.0,99,0.00,,,0.00,weatherlink.com 1.10,2013-10-20 11:47:00,
2013-10-20 08:02:00,73.8,74.0,29.91,West,279,0.0,0.0,99,0.00,,,0.00,weatherlink.com 1.10,2013-10-20 12:02:00,
2013-10-20 08:17:00,74.0,74.0,29.91,West,279,0.0,0.0,99,0.00,,,0.00,weatherlink.com 1.10,2013-10-20 12:17:00,
2013-10-20 08:32:00,74.4,74.0,29.91,West,280,0.0,0.0,99,0.00,,,0.00,weatherlink.com 1.10,2013-10-20 12:32:00,
2013-10-20 08:47:00,74.9,74.0,29.92,West,279,0.0,0.0,98,0.00,,,0.00,weatherlink.com 1.10,2013-10-20 12:47:00,
2013-10-20 09:03:00,75.7,75.0,29.92,West,279,0.0,1.0,98,0.00,,,0.00,weatherlink.com 1.10,2013-10-20 13:03:00,
2013-10-20 09:17:00,76.1,75.0,29.92,West,279,0.0,1.0,97,0.00,,,0.00,weatherlink.com 1.10,2013-10-20 13:17:00,
2013-10-20 09:32:00,76.5,75.0,29.93,West,279,0.0,1.0,96,0.00,,,0.00,weatherlink.com 1.10,2013-10-20 13:32:00,
2013-10-20 09:47:00,78.8,77.0,29.93,WNW,298,0.0,1.0,93,0.00,,,0.00,weatherlink.com 1.10,2013-10-20 13:47:00,
2013-10-20 10:02:00,81.6,76.0,29.93,NNW,332,0.0,1.0,83,0.00,,,0.00,weatherlink.com 1.10,2013-10-20 14:02:00,
2013-10-20 10:17:00,83.0,76.0,29.94,NE,56,0.0,1.0,78,0.00,,,0.00,weatherlink.com 1.10,2013-10-20 14:17:00,
2013-10-20 10:32:00,83.9,76.0,29.94,North,4,0.0,3.0,77,0.00,,,0.00,weatherlink.com 1.10,2013-10-20 14:32:00,
2013-10-20 10:47:00,83.3,75.0,29.94,North,6,0.0,3.0,77,0.00,,,0.00,weatherlink.com 1.10,2013-10-20 14:47:00,
2013-10-20 11:02:00,84.4,77.0,29.94,ENE,63,1.0,3.0,77,0.00,,,0.00,weatherlink.com 1.10,2013-10-20 15:02:00,
2013-10-20 11:18:00,86.6,76.0,29.94,ESE,109,2.0,4.0,71,0.00,,,0.00,weatherlink.com 1.10,2013-10-20 15:18:00,
2013-10-20 11:33:00,85.7,77.0,29.94,NNW,339,3.0,6.0,74,0.00,,,0.00,weatherlink.com 1.10,2013-10-20 15:33:00,
2013-10-20 11:48:00,84.9,77.0,29.94,North,5,2.0,6.0,76,0.00,,,0.00,weatherlink.com 1.10,2013-10-20 15:48:00,
2013-10-20 12:03:00,84.0,76.0,29.93,NNE,18,6.0,6.0,77,0.00,,,0.00,weatherlink.com 1.10,2013-10-20 16:03:00,
2013-10-20 12:18:00,84.2,76.0,29.93,NW,313,0.0,3.0,75,0.00,,,0.00,weatherlink.com 1.10,2013-10-20 16:18:00,
2013-10-20 12:33:00,84.8,77.0,29.93,WNW,292,0.0,3.0,76,0.00,,,0.00,weatherlink.com 1.10,2013-10-20 16:33:00,
2013-10-20 12:49:00,83.0,77.0,29.93,NW,315,0.0,2.0,81,0.00,,,0.00,weatherlink.com 1.10,2013-10-20 16:49:00,
2013-10-20 13:03:00,84.6,77.0,29.92,NW,313,1.0,5.0,78,0.00,,,0.00,weatherlink.com 1.10,2013-10-20 17:03:00,
2013-10-20 13:18:00,86.2,76.0,29.92,WNW,301,0.0,4.0,72,0.00,,,0.00,weatherlink.com 1.10,2013-10-20 17:18:00,
2013-10-20 13:33:00,86.9,77.0,29.91,WNW,289,2.0,9.0,73,0.00,,,0.00,weatherlink.com 1.10,2013-10-20 17:33:00,
2013-10-20 13:48:00,86.9,76.0,29.90,WNW,293,2.0,3.0,69,0.00,,,0.00,weatherlink.com 1.10,2013-10-20 17:48:00,
2013-10-20 14:03:00,86.8,76.0,29.90,West,277,2.0,2.0,69,0.00,,,0.00,weatherlink.com 1.10,2013-10-20 18:03:00,
2013-10-20 14:18:00,86.6,75.0,29.89,North,354,0.0,3.0,68,0.00,,,0.00,weatherlink.com 1.10,2013-10-20 18:18:00,
2013-10-20 14:33:00,88.2,76.0,29.89,NNW,348,2.0,3.0,68,0.00,,,0.00,weatherlink.com 1.10,2013-10-20 18:33:00,
2013-10-20 14:48:00,89.7,76.0,29.88,West,268,0.0,2.0,65,0.00,,,0.00,weatherlink.com 1.10,2013-10-20 18:48:00,
2013-10-20 15:03:00,89.8,77.0,29.88,WNW,296,2.0,2.0,66,0.00,,,0.00,weatherlink.com 1.10,2013-10-20 19:03:00,
2013-10-20 15:18:00,89.4,76.0,29.87,WNW,288,0.0,3.0,64,0.00,,,0.00,weatherlink.com 1.10,2013-10-20 19:18:00,
2013-10-20 15:33:00,89.1,75.0,29.87,NNW,343,4.0,5.0,64,0.00,,,0.00,weatherlink.com 1.10,2013-10-20 19:33:00,
2013-10-20 15:48:00,88.5,75.0,29.87,WNW,299,1.0,4.0,65,0.00,,,0.00,weatherlink.com 1.10,2013-10-20 19:48:00,
2013-10-20 16:03:00,89.0,77.0,29.87,NW,306,1.0,4.0,67,0.00,,,0.00,weatherlink.com 1.10,2013-10-20 20:03:00,
2013-10-20 16:18:00,88.5,76.0,29.87,West,266,1.0,3.0,66,0.00,,,0.00,weatherlink.com 1.10,2013-10-20 20:18:00,
2013-10-20 16:33:00,89.0,75.0,29.87,WNW,298,0.0,3.0,63,0.00,,,0.00,weatherlink.com 1.10,2013-10-20 20:33:00,
2013-10-20 16:48:00,88.6,75.0,29.88,WNW,299,1.0,3.0,64,0.00,,,0.00,weatherlink.com 1.10,2013-10-20 20:48:00,
2013-10-20 17:03:00,87.8,75.0,29.88,WNW,287,2.0,4.0,65,0.00,,,0.00,weatherlink.com 1.10,2013-10-20 21:03:00,
2013-10-20 17:18:00,86.4,75.0,29.88,WNW,287,1.0,3.0,69,0.00,,,0.00,weatherlink.com 1.10,2013-10-20 21:18:00,
2013-10-20 17:33:00,85.3,76.0,29.88,WNW,287,0.0,1.0,74,0.00,,,0.00,weatherlink.com 1.10,2013-10-20 21:33:00,
2013-10-20 17:48:00,86.8,75.0,29.88,WNW,288,0.0,1.0,67,0.00,,,0.00,weatherlink.com 1.10,2013-10-20 21:48:00,
2013-10-20 18:03:00,87.1,75.0,29.88,WNW,288,0.0,1.0,67,0.00,,,0.00,weatherlink.com 1.10,2013-10-20 22:03:00,
2013-10-20 18:18:00,85.7,75.0,29.89,WNW,287,0.0,1.0,71,0.00,,,0.00,weatherlink.com 1.10,2013-10-20 22:18:00,
2013-10-20 18:33:00,85.0,76.0,29.89,WNW,287,0.0,0.0,74,0.00,,,0.00,weatherlink.com 1.10,2013-10-20 22:33:00,
2013-10-20 18:48:00,84.3,76.0,29.89,WNW,287,0.0,1.0,75,0.00,,,0.00,weatherlink.com 1.10,2013-10-20 22:48:00,
2013-10-20 19:03:00,82.8,76.0,29.89,WNW,287,0.0,1.0,79,0.00,,,0.00,weatherlink.com 1.10,2013-10-20 23:03:00,
2013-10-20 19:18:00,82.5,75.0,29.89,NNW,332,1.0,2.0,78,0.00,,,0.00,weatherlink.com 1.10,2013-10-20 23:18:00,
2013-10-20 19:33:00,82.5,75.0,29.90,NW,323,0.0,1.0,79,0.00,,,0.00,weatherlink.com 1.10,2013-10-20 23:33:00,
2013-10-20 19:48:00,81.7,75.0,29.90,NW,319,0.0,1.0,80,0.00,,,0.00,weatherlink.com 1.10,2013-10-20 23:48:00,
2013-10-20 20:18:00,80.0,75.0,29.91,NW,319,0.0,1.0,85,0.00,,,0.00,weatherlink.com 1.10,2013-10-21 00:18:00,
2013-10-20 20:33:00,79.5,75.0,29.91,WNW,294,0.0,2.0,87,0.00,,,0.00,weatherlink.com 1.10,2013-10-21 00:33:00,
2013-10-20 20:48:00,79.9,75.0,29.92,WNW,294,0.0,1.0,85,0.00,,,0.00,weatherlink.com 1.10,2013-10-21 00:48:00,
2013-10-20 21:03:00,80.2,75.0,29.93,WNW,293,1.0,3.0,85,0.00,,,0.00,weatherlink.com 1.10,2013-10-21 01:03:00,
2013-10-20 21:18:00,80.3,75.0,29.93,NNW,336,2.0,5.0,84,0.00,,,0.00,weatherlink.com 1.10,2013-10-21 01:18:00,
2013-10-20 21:33:00,80.3,76.0,29.94,ESE,122,3.0,6.0,85,0.00,,,0.00,weatherlink.com 1.10,2013-10-21 01:33:00,
2013-10-20 21:48:00,78.0,75.0,29.95,NNE,12,2.0,6.0,91,0.03,,,0.03,weatherlink.com 1.10,2013-10-21 01:48:00,
2013-10-20 22:03:00,76.9,75.0,29.95,North,2,0.0,5.0,93,0.04,,,0.04,weatherlink.com 1.10,2013-10-21 02:03:00,
2013-10-20 22:18:00,76.6,75.0,29.95,NNE,17,1.0,5.0,93,0.04,,,0.04,weatherlink.com 1.10,2013-10-21 02:18:00,
2013-10-20 22:33:00,76.5,74.0,29.96,NNE,33,1.0,3.0,93,0.04,,,0.04,weatherlink.com 1.10,2013-10-21 02:33:00,
2013-10-20 22:48:00,76.4,74.0,29.96,NE,54,3.0,3.0,93,0.01,,,0.04,weatherlink.com 1.10,2013-10-21 02:48:00,
2013-10-20 23:03:00,76.1,74.0,29.96,NE,46,2.0,3.0,93,0.00,,,0.04,weatherlink.com 1.10,2013-10-21 03:03:00,
2013-10-20 23:18:00,75.9,74.0,29.95,NE,35,2.0,3.0,93,0.00,,,0.04,weatherlink.com 1.10,2013-10-21 03:18:00,
2013-10-20 23:33:00,75.6,74.0,29.95,NE,50,2.0,4.0,94,0.00,,,0.04,weatherlink.com 1.10,2013-10-21 03:33:00,
2013-10-20 23:48:00,75.2,73.0,29.95,NNE,17,2.0,3.0,94,0.00,,,0.04,weatherlink.com 1.10,2013-10-21 03:48:00,